Temp_Advection
nan nan nan nan nan nan nan nan nan nan nan nan nan nan nan nan nan nan nan nan nan nan nan nan nan nan nan nan nan nan nan nan nan nan nan nan nan nan nan nan nan nan nan nan nan nan nan nan nan nan nan nan nan nan nan nan nan nan nan nan nan nan nan nan nan nan nan nan nan
nan -0 -0 -0 -0 -0 -0 -0 -1 -1 -1 -1 -1 -1 -1 -1 -1 -1 -1 -0 -0 0 0 0 0 0 0 0 0 0 0 0 0 0 0 0 1 1 1 0 0 0 1 1 1 1 0 0 0 0 0 0 0 0 0 0 0 0 0 0 0 -0 -0 -0 -0 -0 -0 -0 nan
nan -0 -0 -0 -0 -0 -1 -1 -1 -1 -1 -1 -1 -0 -0 -0 0 -0 -0 -0 0 0 0 0 0 0 0 0 0 0 0 0 0 0 0 0 0 0 0 0 0 1 1 1 1 1 1 0 0 0 0 0 0 0 0 0 1 0 0 0 0 0 -0 -0 -0 0 0 0 nan
nan -0 -0 -0 -1 -1 -1 -1 -1 -1 -1 -1 -0 0 -0 -0 0 -0 -0 -0 -0 -0 -0 0 0 0 0 0 0 0 0 0 0 0 0 0 0 0 0 0 1 1 1 1 1 1 1 0 0 0 0 0 0 0 0 0 0 0 -0 0 0 0 0 -0 -0 0 0 0 nan
nan -0 -0 -1 -1 -1 -1 -1 -0 -0 -0 -0 0 0 -0 0 0 -0 -0 -1 -1 -1 -0 0 0 0 0 0 0 0 0 0 0 0 0 0 0 0 0 1 1 1 1 0 0 0 0 0 0 0 0 0 0 0 0 0 -0 -0 -0 -0 0 -0 -0 -0 -0 0 0 0 nan
nan -0 -0 -0 -0 -0 -0 0 0 0 0 0 0 0 -0 -0 -0 -0 -1 -1 -1 -0 -0 0 0 0 0 0 0 0 0 0 0 -0 0 0 0 0 0 1 1 0 0 0 0 0 0 0 0 0 0 0 0 0 0 -0 -0 -0 -0 0 0 -0 -0 -0 -0 0 0 0 nan
nan -0 -0 -0 -0 0 0 0 0 0 0 0 -0 -0 -1 -0 -0 -0 -0 -0 -1 -0 -0 0 0 0 -0 0 0 0 -0 -0 -0 -0 0 0 0 0 1 1 0 -0 -0 0 0 0 0 0 0 0 0 0 -0 -0 -0 -0 -0 -0 0 0 0 -0 -0 -0 -0 0 0 0 nan
nan -0 -0 -0 -0 -0 -0 0 0 0 -0 -0 -0 -0 -0 0 0 0 0 -0 -1 -1 -0 0 0 0 0 0 0 0 0 0 0 0 0 0 0 0 0 0 -0 -0 0 0 0 0 0 0 0 0 0 -0 -0 -0 0 -0 -0 0 0 0 0 -0 -0 -0 -0 0 0 0 nan
nan -0 0 0 -0 -0 -0 0 -0 -0 -0 -1 -0 0 1 1 1 1 1 -1 -2 -1 -0 0 0 0 0 0 0 0 0 0 0 0 0 0 0 0 0 -0 -0 -0 0 0 0 0 0 0 0 -0 -0 -0 -0 -0 -0 -0 0 0 0 0 -0 -0 -0 -0 0 0 0 0 nan
nan 0 0 0 -0 -0 0 0 -0 -0 -0 0 0 1 1 1 1 1 0 -1 -1 -1 0 0 0 0 0 0 0 0 0 0 0 0 0 0 0 0 0 -0 -0 -0 0 0 0 0 -0 -0 -0 -0 -0 -0 -0 -0 -0 -0 -0 -0 -0 -0 -0 -0 -0 0 0 0 0 0 nan
nan 0 0 -0 -0 0 0 0 0 0 0 0 1 1 1 0 1 1 -0 -1 -1 -0 0 0 0 0 0 0 0 0 0 0 0 0 0 0 0 0 0 -0 -0 0 0 0 0 -0 -0 -0 -0 -0 -0 -0 -0 -0 -0 -0 -0 -0 -0 -0 -0 -0 0 0 0 0 0 0 nan
nan 0 0 0 0 0 0 0 0 0 0 0 0 0 0 0 0 0 -0 -1 -1 -0 0 0 0 0 0 0 0 0 0 0 0 0 0 0 0 0 0 0 0 0 0 0 0 -0 -0 -0 -0 -0 -0 0 -0 -0 -0 -0 -0 -0 -0 -0 -0 0 0 0 0 0 0 0 nan
nan 0 0 0 0 0 0 0 0 0 0 0 0 0 0 0 1 0 -0 -1 -1 -0 0 0 0 0 0 0 0 0 0 0 0 0 0 0 0 0 0 0 0 0 0 0 0 0 -0 -0 -0 -0 0 0 -0 -0 -0 0 0 -0 -0 -0 0 0 0 0 0 0 0 0 nan
nan 0 0 0 0 0 0 -0 0 0 0 0 -0 0 0 0 0 0 -0 -1 -0 -0 0 0 0 0 0 0 0 0 0 0 0 0 0 0 0 0 0 0 0 0 0 0 0 -0 -0 -0 -0 -0 0 -0 -0 0 0 0 0 0 0 0 0 0 0 0 0 -0 -0 -0 nan
nan 0 0 0 0 0 -0 -0 0 0 0 -0 -0 0 0 0 0 -0 -0 -0 -0 -0 0 0 0 0 0 0 0 0 0 0 0 0 0 0 0 0 0 0 0 0 0 0 -0 -0 0 -0 -0 -0 -0 -0 -0 0 0 -0 -0 -0 -0 0 0 0 0 -0 -0 -0 -0 -0 nan
nan 0 0 0 -0 -0 -0 -0 -0 -0 0 -0 -0 -0 0 0 0 -0 -0 -0 -1 -0 -0 -0 0 0 0 0 0 0 0 0 0 0 0 0 0 0 0 0 0 0 0 -0 0 0 0 -0 -0 -0 0 -0 0 0 -0 -0 -0 -0 -0 0 0 0 0 -0 -0 -0 0 0 nan
nan 0 0 -0 -0 -0 -0 -0 -0 -0 -0 -0 -0 -0 0 0 0 -0 -0 -1 -1 -1 -0 -0 0 0 0 0 0 0 0 0 0 0 0 0 0 0 0 0 0 0 0 0 0 0 0 -0 -0 0 0 0 0 0 -0 -0 0 -0 0 0 0 0 0 0 -0 0 0 0 nan
nan 0 0 -0 -0 -0 -0 -0 -0 -0 0 -0 -0 -0 0 0 0 -0 -1 -1 -1 -1 -0 -0 0 0 0 0 0 0 0 0 0 0 0 0 0 0 0 0 0 0 0 0 0 0 0 -0 0 0 1 0 0 -0 -0 -0 -0 -0 0 0 0 0 0 0 0 0 0 0 nan
nan 0 -0 -0 -0 -0 -0 -0 0 0 0 -0 -0 0 0 0 -0 -1 -1 -1 -1 -0 -0 0 0 0 0 0 0 0 0 0 0 0 0 0 0 0 0 0 0 0 0 0 0 0 0 0 0 1 1 0 0 -0 -0 -0 -0 0 0 0 0 0 0 0 0 0 0 0 nan
nan 0 -0 -0 -0 -0 0 0 0 0 0 0 0 0 0 -0 -1 -2 -2 -1 -0 -0 -0 0 0 0 0 0 0 0 0 0 0 0 0 0 0 0 -0 -0 -0 0 0 0 0 0 0 0 1 0 0 -0 -0 -0 -0 -0 0 0 0 0 0 0 0 0 0 0 0 0 nan
nan -0 -0 -0 0 0 0 0 0 0 0 0 0 0 -0 -1 -2 -2 -1 0 0 0 -0 0 0 0 0 0 0 0 0 1 1 0 0 0 0 -0 -1 -0 0 0 0 0 0 0 0 0 0 -0 -0 -0 -0 -0 0 0 0 0 0 0 0 0 0 0 0 0 0 0 nan
nan -0 -0 0 0 0 0 0 0 0 0 0 0 -0 -0 -1 -1 -1 0 1 0 0 0 0 0 0 0 0 0 0 0 0 0 0 0 0 -0 -1 -1 0 0 0 0 0 0 0 0 0 -0 -0 -0 -0 -0 0 0 0 0 0 0 0 -0 0 0 0 0 0 0 0 nan
nan 0 0 0 0 0 0 0 0 0 0 0 0 -0 -1 -1 -1 -0 0 1 0 0 0 0 0 0 0 1 1 0 0 0 0 0 0 -0 -1 -0 -0 0 1 0 0 0 0 0 -0 -0 -0 -0 -0 -0 0 0 0 0 0 0 0 -0 -0 -0 0 0 0 0 0 0 nan
nan 0 0 0 0 0 0 0 0 0 0 0 0 -1 -1 -1 -0 0 0 0 0 0 0 0 1 1 1 1 1 0 0 0 0 0 -0 -0 -0 -0 0 1 1 1 0 0 0 0 0 -0 -0 -0 -0 0 0 0 0 0 0 0 0 0 -0 -0 -0 -0 0 0 0 0 nan
nan 0 0 0 0 0 0 0 0 0 0 0 -0 -1 -1 -0 -0 0 0 0 0 0 0 1 1 1 1 0 0 0 0 0 0 0 -0 -0 -0 0 0 1 1 1 1 0 0 0 0 0 0 0 0 0 0 0 0 0 0 0 0 0 0 -0 -0 -0 0 0 0 0 nan
nan -0 0 0 0 0 0 0 0 0 0 0 -0 -1 -0 -0 -0 0 0 0 0 0 1 1 1 0 0 0 0 0 0 0 0 0 -0 -0 -0 0 1 1 1 1 1 1 1 1 1 0 0 0 0 0 0 0 0 -0 0 0 0 0 0 0 0 0 0 0 0 0 nan
nan -0 0 0 0 0 0 0 0 0 0 -0 -1 -1 -0 -0 0 0 0 0 0 1 1 1 0 0 0 0 0 0 0 0 0 0 0 0 0 0 1 1 1 0 1 1 1 1 0 0 0 0 0 0 0 0 -0 -0 -0 -0 0 -0 0 0 0 0 0 0 0 0 nan
nan 0 0 0 0 0 0 0 0 0 -0 -0 -1 -0 -0 0 0 0 0 0 0 1 0 0 -0 -0 0 0 0 0 0 0 0 0 0 0 0 0 1 1 1 1 1 1 1 0 0 0 0 0 0 0 0 0 0 0 -0 -0 -0 -0 0 0 0 0 0 0 0 0 nan
nan 0 0 -0 0 0 0 0 0 -0 -0 -0 -0 -0 0 0 0 0 0 0 0 0 -0 -0 -0 -0 0 0 0 0 0 0 0 0 0 0 0 1 1 1 1 1 1 0 0 -0 -0 0 0 0 0 0 0 0 0 0 0 -0 -0 0 0 0 0 0 0 0 0 0 nan
nan -0 -0 0 0 0 0 0 0 -0 -0 -0 -0 0 0 0 0 0 0 0 -0 -0 -0 -0 -0 -0 0 0 0 0 0 0 0 0 0 0 0 1 1 1 1 1 0 -0 -0 -0 -0 -0 0 0 0 -0 -0 -0 0 0 0 0 0 0 0 0 0 0 0 0 0 0 nan
nan 0 0 0 0 0 0 0 0 0 -0 -0 -0 0 0 0 0 0 0 -0 -0 -0 -0 0 0 0 0 0 0 0 0 0 0 0 0 0 1 1 1 1 1 1 0 -0 -0 -0 -0 -0 0 0 -0 -0 -0 0 0 0 0 0 0 0 0 0 0 0 0 0 0 0 nan
nan 0 0 0 0 1 1 1 0 -0 -0 -0 0 0 0 0 0 0 0 0 -0 -0 -0 0 0 0 0 0 0 0 0 0 0 0 0 0 1 1 1 1 1 1 0 -0 0 0 0 0 0 0 0 0 0 0 0 0 0 0 0 0 0 0 0 0 1 0 0 0 nan
nan 0 0 0 0 1 1 0 0 -0 -0 0 0 1 1 0 1 0 0 -0 -0 -0 -0 0 0 0 0 0 0 0 0 0 0 0 0 1 1 1 1 1 1 0 0 0 1 0 0 0 0 0 0 0 1 1 0 0 0 0 0 0 0 0 0 1 1 0 0 0 nan
nan 0 0 0 0 0 0 0 -0 -0 0 0 1 1 1 1 0 0 -0 -1 -0 -0 0 0 0 0 0 0 0 0 0 0 0 0 1 1 1 1 1 1 0 0 0 1 1 0 0 0 0 0 0 0 0 0 0 0 0 0 0 0 0 0 1 1 0 0 0 0 nan
nan 0 0 0 0 0 -0 -0 -0 -0 0 1 1 1 0 0 -0 -1 -1 -1 -0 0 1 1 1 1 1 1 1 0 0 0 0 0 1 1 1 1 1 0 0 0 0 1 0 0 0 0 0 0 0 0 0 0 0 0 0 0 0 0 0 1 0 0 0 0 0 0 nan
nan -0 -0 -0 -0 -0 -0 -0 -0 0 0 0 0 0 0 0 -0 -0 -0 -0 0 1 1 1 1 1 1 1 0 0 0 0 0 1 1 1 1 1 1 0 0 0 1 0 0 -0 0 0 0 0 0 0 -0 0 0 0 0 0 0 1 1 0 0 0 0 0 0 0 nan
nan -1 -1 -1 -1 -0 -0 -0 0 0 0 0 0 0 0 0 -0 -1 -0 -0 0 0 0 0 1 0 0 0 0 0 0 0 0 1 1 1 1 1 0 0 -0 0 0 0 -0 -0 0 0 0 0 0 0 -0 -0 -0 -0 0 0 0 1 1 0 0 -0 0 0 0 0 nan
nan -1 -1 -1 -1 -0 -0 0 0 0 0 0 0 0 0 -0 -1 -1 -1 0 0 0 0 0 0 0 0 0 0 0 0 1 1 1 1 1 1 0 0 -0 -0 -0 -0 -0 -0 0 0 0 0 0 0 0 0 -0 -0 -0 0 0 0 0 0 0 0 0 0 0 0 0 nan
nan -1 -1 -1 -1 -0 0 0 0 0 -0 0 0 0 -0 -1 -1 -1 0 0 1 1 0 0 0 0 0 0 0 0 1 1 2 1 1 1 0 0 0 -0 -0 -0 -0 -0 0 0 0 0 1 0 0 0 0 0 0 0 0 0 0 0 -0 -0 -0 0 0 0 0 0 nan
nan -0 -1 -1 -1 -0 0 1 0 0 -0 0 0 0 -1 -1 -1 0 1 1 1 1 1 0 0 0 0 0 0 1 1 2 2 1 1 0 0 0 0 0 -0 -0 -0 0 0 1 1 1 1 0 0 0 0 0 0 0 0 0 0 0 -0 -0 -0 -0 0 0 -0 -0 nan
nan nan nan nan nan nan nan nan nan nan nan nan nan nan nan nan nan nan nan nan nan nan nan nan nan nan nan nan nan nan nan nan nan nan nan nan nan nan nan nan nan nan nan nan nan nan nan nan nan nan nan nan nan nan nan nan nan nan nan nan nan nan nan nan nan nan nan nan nan
Wind_Speed
26 26 26 26 26 26 26 26 27 27 27 27 27 27 27 26 25 24 22 21 19 18 16 15 13 12 11 11 12 13 14 16 17 18 19 20 20 20 20 20 20 19 19 18 18 18 18 18 19 19 19 19 18 17 17 17 17 17 16 15 14 14 14 14 14 15 15 14 14
26 26 26 26 26 26 26 27 27 28 28 28 28 27 27 27 25 24 23 21 19 17 15 13 12 11 10 10 10 10 11 13 14 15 15 16 17 17 18 19 19 18 18 18 18 18 18 17 18 18 18 17 16 16 16 16 17 17 16 16 15 15 16 16 16 16 16 15 14
26 26 26 26 26 26 27 27 28 28 29 28 28 28 27 27 25 24 23 22 19 17 15 13 11 10 10 10 10 10 10 11 12 12 13 14 14 15 16 16 16 16 16 17 17 17 17 17 17 17 16 16 15 14 14 15 16 16 15 15 16 16 16 16 17 17 17 16 15
27 26 26 26 26 27 27 28 28 29 29 29 28 28 27 27 25 24 23 22 20 17 15 13 11 10 10 10 9 10 10 10 11 11 12 12 13 14 14 14 14 15 15 15 16 16 16 16 16 16 16 15 14 13 13 14 15 15 15 15 16 16 15 14 15 16 17 17 16
27 27 27 27 27 27 27 28 28 28 28 29 28 28 27 26 25 24 24 22 20 18 15 13 12 11 10 10 10 10 10 10 11 11 11 12 12 13 13 13 13 13 14 14 15 15 15 15 15 15 15 15 14 14 14 15 15 15 15 15 16 17 16 14 14 14 16 17 17
27 27 27 27 27 26 26 26 27 27 27 28 28 28 27 27 26 25 24 23 21 18 15 13 12 11 11 10 10 10 10 11 11 12 12 12 12 12 13 13 13 12 13 14 14 14 14 14 14 14 14 14 15 15 15 16 16 16 15 15 17 17 17 16 14 14 14 16 16
27 27 27 27 27 26 26 25 25 26 26 27 28 28 28 27 27 26 25 23 21 18 15 13 12 12 11 11 11 11 11 12 12 12 12 12 12 13 13 13 12 12 13 13 14 14 14 13 13 13 13 14 14 15 16 16 16 16 15 16 16 17 17 16 15 14 14 15 15
27 27 27 27 27 27 26 26 25 25 26 27 28 28 28 27 27 26 25 23 22 19 15 13 13 12 12 11 11 11 12 12 12 13 13 13 13 13 13 13 13 13 13 13 14 14 14 13 13 12 12 13 14 15 16 16 15 14 13 14 15 16 16 16 15 14 13 14 14
27 27 27 27 27 27 27 26 26 26 26 27 27 27 27 27 26 25 24 24 22 18 15 13 12 12 12 12 12 12 12 12 13 13 14 14 13 13 13 13 13 13 13 14 14 14 14 13 13 12 12 12 13 14 15 15 13 11 10 11 12 14 14 14 14 13 12 12 12
27 27 27 28 28 27 27 26 26 26 26 27 27 26 26 26 25 25 24 24 21 18 14 13 12 12 12 12 12 12 12 13 13 14 14 14 14 14 14 14 14 14 14 15 15 15 14 14 13 12 12 12 13 14 14 13 11 9 9 10 11 12 13 13 13 12 11 10 9
28 28 28 28 28 28 27 27 26 26 26 26 26 25 25 25 25 24 23 23 20 17 14 13 13 12 12 12 13 13 13 13 14 14 14 15 14 14 15 15 15 15 15 15 15 15 15 14 14 13 13 12 13 14 13 12 11 10 10 11 11 11 11 12 12 11 10 9 7
29 28 28 28 28 28 28 27 27 27 27 26 26 25 25 25 25 24 24 22 20 17 14 13 13 13 12 13 13 13 13 14 14 15 15 15 15 15 15 16 16 16 16 16 15 15 15 15 14 13 13 13 14 14 14 13 12 11 11 11 11 11 11 12 11 11 10 9 7
29 28 28 28 28 28 28 28 28 27 27 27 26 26 25 25 25 25 24 22 20 16 14 13 13 13 13 13 13 13 14 14 15 15 16 16 15 15 16 17 17 17 17 16 15 15 15 15 14 13 13 13 15 15 15 14 12 11 10 10 11 12 12 12 11 10 10 9 8
29 29 28 28 28 29 29 29 28 28 27 27 26 26 25 25 26 25 24 22 19 16 14 13 13 13 13 13 14 14 14 15 15 16 16 16 16 16 17 17 18 18 17 16 15 15 15 15 14 13 13 14 16 16 15 13 11 9 8 8 9 11 12 12 11 10 9 9 8
29 29 29 29 29 29 29 29 29 28 27 27 26 26 25 25 26 25 24 22 19 16 14 14 14 14 14 14 14 14 14 15 16 17 17 17 17 17 18 18 19 19 18 17 16 16 16 15 14 13 14 16 17 16 14 12 9 7 6 5 6 8 9 10 10 10 9 8 8
29 29 29 29 29 30 30 29 28 28 27 27 26 26 26 26 26 26 24 23 20 17 15 14 14 15 15 15 15 15 15 16 17 17 18 18 18 18 19 19 19 19 19 18 17 17 16 15 14 13 15 17 18 16 13 10 9 7 5 5 5 6 7 9 9 9 8 8 7
29 29 29 29 30 30 30 29 28 27 27 27 27 27 27 27 26 26 25 23 20 17 15 14 15 15 16 16 16 16 16 17 17 18 18 19 19 19 19 20 20 20 19 18 18 18 17 15 14 14 16 18 18 15 12 11 10 8 6 6 6 6 7 8 8 8 8 8 8
29 29 29 29 30 30 30 30 29 28 27 27 27 28 27 27 27 27 26 24 20 17 15 15 15 16 16 16 16 17 17 17 18 18 19 19 19 20 20 21 21 20 19 19 19 18 17 15 14 15 17 19 17 14 11 11 10 8 8 7 6 7 8 9 9 8 8 8 7
30 30 30 30 30 31 31 31 30 29 27 26 27 27 28 28 28 28 26 23 19 16 15 15 16 16 17 17 17 17 17 18 18 19 19 20 20 20 21 22 21 20 20 20 19 18 17 16 16 17 19 19 16 12 11 10 10 10 9 7 7 8 9 10 10 9 8 7 6
30 31 31 32 32 32 31 31 30 29 27 26 26 27 28 28 29 28 26 22 19 16 15 15 16 17 17 17 17 17 17 17 18 19 20 20 21 22 22 22 21 21 20 20 19 19 18 18 18 19 19 17 14 11 11 11 11 11 9 8 9 10 11 11 10 9 8 7 6
30 30 31 32 32 32 32 31 30 28 26 26 26 27 28 29 29 28 25 21 19 17 16 16 17 17 17 17 17 17 17 18 19 20 21 21 22 23 23 22 21 20 20 20 20 19 19 20 20 19 17 14 12 11 12 12 13 12 11 11 11 12 12 11 10 8 7 6 5
30 30 31 31 32 32 31 31 29 27 26 26 26 28 29 29 29 26 23 20 19 18 17 17 17 17 17 17 17 17 18 19 20 21 22 23 24 24 23 22 21 20 20 20 20 20 20 20 19 17 15 13 12 12 13 13 13 12 12 13 13 13 12 10 9 7 6 5 5
31 31 30 30 31 31 31 30 28 27 26 26 27 28 29 29 28 25 22 20 19 19 18 18 18 17 17 17 17 18 19 20 21 22 23 24 24 24 22 21 20 20 21 21 21 21 21 20 18 16 14 13 13 13 13 13 12 12 13 14 14 13 11 9 8 7 6 6 6
30 30 29 29 29 29 29 29 28 28 27 27 28 29 29 29 27 24 22 20 20 20 19 19 18 18 18 18 19 19 20 21 22 24 25 25 24 23 22 21 20 21 21 20 20 20 20 19 17 15 14 14 13 13 13 12 12 12 13 13 12 11 10 8 7 7 7 7 8
29 29 28 28 27 28 28 28 29 28 28 29 30 30 30 29 27 25 22 21 21 20 20 19 19 19 19 20 20 21 21 22 23 24 25 25 24 22 21 21 21 21 20 20 19 19 19 18 16 15 15 14 14 14 13 13 12 12 12 11 10 9 8 8 7 7 8 9 9
28 28 27 27 27 27 27 28 29 29 30 30 31 31 30 29 27 25 23 22 21 21 21 20 21 21 21 22 22 22 23 23 24 25 25 24 23 22 22 21 21 21 20 19 19 18 18 17 16 15 15 14 14 14 14 13 12 12 11 10 9 8 8 8 8 8 9 9 9
27 27 27 26 26 26 27 28 29 30 31 31 32 32 31 29 27 25 24 23 22 21 21 22 22 22 23 23 23 23 24 24 25 25 24 24 23 22 22 22 21 21 20 19 18 18 17 16 16 15 15 15 14 14 13 13 12 12 11 10 9 8 8 8 9 9 9 9 9
27 27 27 26 26 26 27 28 29 30 32 33 33 32 31 30 28 26 24 23 23 23 23 23 24 23 23 23 24 24 24 25 25 25 24 23 23 22 22 22 22 21 20 19 18 18 18 17 16 15 15 15 15 14 12 12 12 12 11 11 10 10 10 9 9 9 9 9 9
27 27 27 27 27 27 27 28 29 31 32 33 33 32 31 30 28 27 25 25 24 24 24 24 24 24 24 24 24 25 25 25 25 25 24 24 24 23 23 23 23 22 20 19 18 18 18 17 17 16 16 16 15 13 12 12 12 12 12 12 12 11 11 10 9 9 9 8 8
26 27 27 27 27 28 28 29 30 31 33 33 33 32 31 30 29 28 27 26 25 25 25 25 24 24 25 25 25 25 25 25 25 25 25 25 25 24 24 24 23 22 20 19 19 19 19 18 17 17 17 15 14 13 13 12 12 12 12 12 12 12 11 10 10 9 9 8 8
27 27 27 27 28 28 29 29 30 32 33 33 33 32 32 31 30 29 28 27 26 26 25 24 24 25 25 25 26 26 25 25 25 25 25 25 26 26 25 25 24 22 21 20 20 20 20 19 18 18 16 15 14 14 14 13 13 12 12 12 12 11 10 10 10 10 10 9 8
27 27 27 27 28 29 29 29 31 32 33 33 33 33 32 31 31 30 29 28 27 26 25 25 25 25 26 26 26 26 26 26 25 25 26 26 27 26 26 25 24 22 21 21 20 20 20 20 19 18 16 14 14 15 14 14 13 13 12 12 11 11 11 11 11 11 11 10 8
27 27 27 28 28 29 29 30 32 33 33 33 33 33 32 32 31 30 29 28 27 26 26 25 25 26 26 26 26 26 26 26 26 26 26 27 27 27 26 25 23 22 21 21 20 20 20 20 19 17 16 15 15 16 15 15 14 13 13 12 12 12 12 12 12 12 11 10 8
28 28 28 28 29 30 30 32 33 34 34 34 33 33 33 32 32 31 30 29 28 26 25 25 25 26 26 26 27 27 27 26 26 26 27 27 27 27 27 26 24 22 22 21 20 20 20 20 18 17 16 16 17 17 16 15 14 13 13 13 13 13 13 13 13 12 10 9 7
30 29 29 29 30 31 32 34 34 34 34 34 33 33 33 33 32 31 30 29 28 27 26 26 26 26 26 26 27 27 27 27 27 27 28 28 28 28 27 25 24 23 22 21 20 20 20 19 18 18 18 18 18 17 16 15 14 13 13 14 14 14 15 14 13 12 10 8 7
31 31 31 31 32 33 34 35 35 35 34 34 33 33 33 33 32 31 30 29 28 27 27 27 27 27 27 27 28 27 27 27 27 28 28 28 28 28 27 25 24 23 22 21 20 20 19 19 19 19 19 19 19 18 16 15 14 14 14 15 15 16 16 15 13 12 10 8 7
31 32 32 32 33 34 35 35 35 34 34 33 33 33 33 33 32 31 30 29 28 28 27 27 28 28 28 28 28 28 27 27 28 28 28 28 28 28 27 26 25 24 22 21 20 20 20 19 19 19 19 19 18 17 16 15 14 15 16 16 17 16 16 15 13 11 10 8 7
31 31 31 31 32 33 35 35 35 34 34 34 33 33 33 32 32 31 30 29 28 28 28 27 27 27 28 28 28 28 27 27 28 29 29 28 28 28 27 26 26 24 23 21 20 20 20 20 20 19 19 18 17 16 15 15 15 16 17 17 17 17 16 15 13 12 10 8 7
31 31 30 29 29 31 33 34 34 34 34 34 33 33 32 32 31 30 29 29 28 28 27 27 27 27 28 28 28 28 28 28 29 29 29 29 28 27 27 26 26 25 23 22 21 21 20 20 20 19 18 17 16 15 14 15 16 17 18 18 18 17 16 14 13 12 10 9 8
33 32 30 27 27 28 31 33 34 34 34 34 34 33 33 32 31 30 29 29 29 28 28 27 27 28 28 28 28 29 30 30 30 29 29 28 28 27 26 26 26 25 24 23 22 22 21 20 20 19 18 16 15 14 14 15 16 18 19 19 18 17 16 15 13 11 10 9 8
34 33 31 28 26 26 29 32 33 34 34 34 34 34 33 32 31 30 30 30 30 29 29 29 28 28 28 29 30 30 31 31 31 30 29 28 27 26 26 25 25 25 24 24 23 22 21 20 20 19 17 16 14 14 14 15 17 18 19 19 18 17 16 14 13 11 10 9 8
Wind_Direction
212 212 211 210 209 209 210 211 210 210 211 211 211 211 213 213 212 212 212 212 210 207 204 200 198 198 199 201 204 206 208 212 215 217 220 222 224 225 225 225 225 224 224 225 227 229 229 230 232 235 236 236 234 232 231 232 234 234 233 231 228 225 225 227 229 230 231 232 234
211 213 213 212 211 211 211 212 212 212 213 214 214 215 216 216 215 215 215 214 211 208 203 200 198 197 197 197 197 198 200 202 206 209 212 215 216 218 220 221 222 221 222 223 227 228 228 228 229 231 233 233 233 232 232 232 233 233 233 231 229 229 231 233 233 231 230 230 231
210 212 213 213 212 212 212 212 213 214 214 215 216 217 219 219 219 218 219 218 215 211 207 204 202 200 200 199 197 196 195 195 198 200 203 206 208 210 212 214 215 215 216 219 223 226 226 225 226 228 229 229 229 230 230 230 230 231 231 231 230 233 236 239 237 234 231 229 230
209 211 212 213 213 213 214 214 214 215 216 217 217 218 219 221 221 221 221 222 219 215 210 207 206 205 205 202 201 198 196 194 194 195 198 200 202 204 205 207 208 208 209 212 217 222 223 223 224 226 226 225 225 225 226 226 227 228 229 229 230 233 239 242 241 236 232 230 230
209 210 212 214 215 215 216 217 216 217 217 218 218 218 219 221 221 221 221 221 220 217 213 209 208 208 207 205 203 201 198 196 195 195 195 197 199 201 202 203 204 203 203 207 213 217 220 221 222 223 222 221 219 220 222 223 225 227 228 228 228 231 237 241 242 238 232 229 229
209 210 213 215 215 216 216 217 217 217 218 219 218 218 219 220 220 220 220 221 221 218 213 209 208 208 208 206 204 202 201 199 197 196 195 195 196 199 200 201 201 200 201 204 209 213 216 218 219 219 217 215 215 216 218 221 224 227 228 226 227 228 233 238 242 239 232 228 227
210 210 212 214 215 215 215 216 216 217 218 219 219 220 220 221 222 221 221 222 222 219 215 210 207 207 207 205 204 203 201 199 197 196 195 194 195 197 198 199 199 199 200 202 205 209 212 213 214 212 211 211 212 214 216 218 225 230 231 226 223 224 228 234 240 240 234 226 223
212 211 212 214 215 215 215 215 215 215 217 219 220 221 222 223 223 222 222 222 222 220 216 210 207 206 206 205 204 202 201 199 197 195 195 194 194 194 194 195 197 198 199 200 202 205 207 208 206 204 203 207 210 212 213 216 224 233 234 227 218 217 221 228 236 238 232 223 221
211 212 212 214 215 216 216 215 215 216 217 220 221 222 222 222 223 222 221 221 223 222 217 211 208 206 206 205 204 203 201 199 196 195 195 194 193 191 190 193 195 197 198 199 201 203 204 204 201 199 201 205 208 210 212 214 219 225 225 218 210 210 215 222 229 230 225 219 219
211 211 212 213 215 216 216 216 216 217 218 220 221 221 221 221 221 220 219 222 224 222 217 210 207 206 205 204 203 202 201 199 197 195 194 194 192 189 189 192 194 195 196 199 201 202 202 202 200 201 203 206 206 208 209 209 207 208 208 204 203 205 210 215 219 218 215 213 215
212 211 212 213 215 216 216 215 216 217 218 219 220 220 219 220 220 218 218 221 223 221 215 208 205 204 204 204 203 202 201 199 198 195 194 193 192 190 189 192 195 196 196 198 200 201 201 201 202 204 206 205 204 202 200 198 196 197 199 199 201 204 207 208 207 206 206 208 211
213 212 213 213 215 215 215 215 215 216 217 218 219 219 219 219 219 218 217 219 221 219 212 205 202 202 203 203 203 202 201 199 197 195 193 192 191 190 190 192 195 197 197 198 199 200 199 200 202 205 207 205 201 196 191 189 192 197 201 204 206 209 210 208 204 202 203 207 216
213 212 213 213 214 215 216 216 216 216 217 218 218 219 219 219 219 218 218 220 221 217 209 202 199 200 201 202 202 202 201 198 196 194 192 191 191 189 190 192 195 196 198 198 199 199 199 198 199 203 205 204 198 191 188 191 199 208 214 215 216 217 218 216 211 207 207 215 230
213 213 213 213 214 215 216 216 216 217 217 218 219 219 219 219 219 219 219 221 221 216 206 199 197 198 199 200 201 201 200 197 195 193 192 190 190 189 190 191 194 197 198 199 199 200 198 195 194 198 202 201 195 192 194 201 208 215 218 221 223 223 222 220 218 217 221 231 242
212 213 213 213 214 215 217 217 217 218 218 219 219 218 217 217 219 219 220 221 221 214 203 196 196 197 197 198 199 200 199 197 194 193 191 190 189 189 190 192 195 198 199 199 200 200 198 193 191 195 200 199 196 197 202 208 206 200 200 217 227 225 221 220 222 226 232 239 240
211 212 213 213 214 216 217 217 217 218 218 218 219 218 217 217 219 220 220 221 219 212 201 195 195 196 196 197 198 198 198 196 194 193 192 191 189 189 191 193 197 199 199 199 200 200 198 193 195 200 201 199 198 202 206 205 193 186 195 226 237 227 217 216 221 227 231 231 227
210 211 212 212 214 216 217 217 217 217 218 218 219 219 218 219 220 220 220 220 218 210 200 195 196 196 196 196 197 197 196 195 194 193 192 191 190 190 192 196 199 200 200 199 199 199 198 197 202 206 203 199 200 203 204 197 189 195 221 246 243 223 209 208 212 216 218 217 214
210 210 211 211 213 215 217 218 218 218 218 218 219 220 220 220 220 220 221 222 219 211 201 198 198 198 198 197 197 197 196 195 194 193 192 190 190 192 195 198 201 201 200 199 199 198 198 200 206 206 202 198 199 202 202 199 202 219 242 249 231 208 198 198 200 202 204 205 206
211 211 211 213 214 215 218 219 219 219 219 218 219 221 221 222 222 223 224 225 221 212 204 201 200 200 200 199 199 199 198 196 195 193 191 190 191 193 197 201 202 201 200 199 198 197 198 202 205 204 199 196 197 202 206 210 221 235 243 232 207 193 190 190 191 193 195 199 204
211 211 213 215 216 217 218 218 219 219 218 217 219 221 222 223 225 228 229 228 222 214 208 205 203 202 201 200 200 200 199 197 195 193 192 191 192 196 200 202 202 201 200 199 197 197 199 202 203 200 195 194 198 205 213 221 231 236 229 207 190 185 185 184 185 187 192 200 210
211 212 214 216 217 218 218 219 218 217 216 216 218 221 223 226 229 231 232 230 223 216 211 208 206 204 203 201 200 200 199 198 196 193 192 192 195 199 202 204 202 201 199 198 197 197 199 201 199 195 192 194 202 211 220 227 231 226 210 190 183 182 182 181 182 186 195 206 221
212 213 214 217 218 218 218 219 217 215 214 215 218 222 226 229 232 234 233 229 223 218 214 210 207 206 204 202 201 200 199 198 196 194 193 194 197 200 203 204 202 200 199 198 198 199 199 198 194 191 192 198 207 216 223 227 223 210 193 181 179 180 181 181 184 189 200 214 231
213 214 215 216 217 218 218 217 215 214 214 215 218 223 227 231 233 234 232 226 222 218 216 212 208 206 204 203 201 200 200 199 197 195 195 197 199 201 203 203 202 200 200 200 200 200 198 194 191 191 196 204 212 218 220 217 206 191 180 177 177 178 180 182 186 194 206 221 235
212 213 213 213 215 216 216 215 214 214 214 215 219 223 228 231 233 232 229 224 220 218 215 212 208 204 203 202 202 202 201 200 198 197 197 198 199 201 202 202 201 201 201 202 203 201 197 191 191 195 201 208 213 214 208 198 185 176 174 176 178 179 181 185 191 201 213 226 235
210 210 211 211 212 213 214 214 213 213 213 215 219 224 228 230 230 229 226 223 219 217 214 210 206 203 202 202 202 203 202 201 200 199 199 198 199 201 202 201 200 200 201 203 204 201 196 192 194 199 205 209 209 202 191 180 171 170 172 175 178 181 185 191 200 210 220 229 235
209 209 209 209 210 211 212 212 213 213 214 216 219 223 227 228 229 227 225 221 219 216 213 209 205 203 202 202 202 202 202 202 202 202 201 200 200 201 201 200 199 199 200 202 202 199 195 195 199 203 207 208 201 190 179 171 168 169 173 176 179 185 192 200 208 217 225 232 235
208 208 207 207 207 208 209 211 212 213 215 217 220 223 226 227 227 225 223 220 218 215 211 208 206 204 203 203 202 202 202 202 203 202 202 201 201 201 201 200 199 198 199 201 199 197 195 197 201 204 204 199 189 181 174 171 169 170 173 177 184 192 200 207 214 223 230 234 233
207 206 206 205 205 206 208 210 211 213 215 218 220 223 225 226 225 223 221 219 216 213 210 208 206 205 204 203 203 203 203 202 202 202 201 201 202 202 201 200 198 196 197 198 197 196 196 198 201 201 195 187 180 176 175 174 173 174 176 182 189 196 202 208 215 224 230 231 225
205 205 204 203 203 204 205 207 209 213 216 219 221 222 224 224 223 222 219 217 214 212 209 208 206 205 204 204 203 203 203 202 202 201 200 201 202 202 202 200 196 194 193 194 194 195 197 198 199 194 185 179 176 177 177 177 178 179 182 186 192 196 201 206 214 220 223 220 210
205 204 203 202 202 203 204 205 209 213 217 219 221 221 222 222 221 220 218 216 214 212 211 209 206 205 204 204 204 203 203 202 201 201 200 201 202 202 200 198 193 191 190 191 192 194 197 197 194 186 179 177 179 180 180 179 181 183 186 189 192 196 200 206 211 211 208 202 194
204 203 201 200 201 202 203 205 208 213 216 218 219 220 220 220 219 218 217 215 214 213 212 209 207 205 204 204 204 203 202 202 201 200 201 202 202 200 197 193 190 188 188 189 191 193 195 194 189 182 178 179 183 183 181 179 181 184 188 191 193 195 199 202 202 198 191 184 179
203 202 200 200 200 201 202 203 207 212 215 217 218 219 219 218 218 217 217 215 214 213 211 209 207 206 205 204 203 203 202 201 201 201 202 203 202 198 193 189 187 186 187 189 191 192 192 189 185 181 180 182 184 182 180 178 180 183 187 190 193 195 196 196 191 185 179 174 171
202 200 200 200 200 201 201 203 207 211 215 217 217 217 217 217 217 216 215 215 214 213 211 209 207 206 205 204 202 202 201 201 201 202 203 203 200 194 189 185 184 185 187 189 189 189 188 186 183 182 181 181 181 179 178 179 181 184 187 191 192 192 190 186 181 175 171 169 168
202 199 199 200 201 201 202 205 208 212 214 215 215 215 215 215 215 214 214 214 214 213 211 209 208 206 205 204 202 201 200 201 201 203 203 202 197 191 185 182 182 183 186 188 188 187 186 183 183 182 181 179 178 178 179 181 184 187 191 194 192 188 182 176 172 169 167 166 168
202 200 201 202 203 204 205 208 211 213 213 213 213 214 214 215 215 215 215 215 214 212 210 209 208 207 205 204 202 201 200 200 201 203 202 199 193 187 183 181 180 182 184 186 187 186 184 183 183 181 180 178 178 179 181 184 187 192 195 196 190 182 175 170 167 165 165 166 170
204 202 203 205 207 208 209 211 212 213 213 212 212 213 213 214 215 215 216 215 213 210 208 207 206 206 205 204 202 201 201 201 202 202 200 195 189 184 181 180 179 180 182 185 186 185 184 183 183 181 180 179 180 181 184 187 191 195 196 193 185 177 170 167 165 165 166 169 172
207 205 206 208 210 211 213 213 213 213 212 212 212 213 213 213 214 215 215 214 212 210 208 207 206 205 204 203 202 201 202 202 203 201 197 191 186 182 180 179 178 178 181 183 183 183 183 183 183 181 181 181 183 185 187 190 193 195 192 187 179 173 168 166 165 166 168 171 176
211 208 206 207 210 213 215 215 214 213 213 213 213 213 214 213 214 214 215 214 212 210 208 206 205 205 204 203 202 201 202 204 204 200 194 188 184 181 180 179 177 178 179 180 180 180 181 181 181 181 182 184 186 189 191 194 194 192 187 181 175 170 167 166 166 168 170 175 180
212 211 209 208 211 214 216 216 215 214 214 214 213 213 213 214 214 215 214 214 212 210 208 206 205 204 203 203 202 201 202 203 202 197 190 184 181 181 180 179 177 177 177 177 177 177 178 179 179 181 184 187 191 194 197 196 193 188 182 177 172 168 166 166 168 171 174 178 182
210 211 211 211 212 215 217 216 216 216 216 215 214 213 213 214 214 214 213 212 211 209 208 206 204 203 203 202 202 201 200 199 197 192 186 181 179 179 180 179 178 176 175 174 174 175 176 177 179 182 186 190 195 199 199 196 190 184 179 174 171 168 166 168 171 175 179 181 182
208 208 209 211 214 217 217 217 217 217 217 216 215 214 214 214 213 212 210 209 208 207 206 205 204 203 202 202 202 201 199 195 191 186 182 178 176 177 178 180 178 176 173 172 172 173 175 177 180 184 188 193 197 199 198 193 187 181 176 173 171 169 168 169 173 178 182 183 181
Height
1447 1448 1449 1450 1451 1452 1453 1454 1455 1457 1458 1459 1460 1461 1462 1463 1465 1466 1468 1469 1470 1472 1473 1474 1475 1476 1477 1477 1478 1478 1479 1480 1481 1482 1482 1483 1484 1485 1486 1487 1488 1489 1490 1491 1492 1492 1493 1493 1493 1494 1494 1495 1496 1497 1497 1498 1499 1499 1500 1501 1501 1502 1502 1503 1503 1504 1504 1505 1505
1446 1447 1448 1448 1449 1451 1452 1453 1454 1455 1456 1458 1459 1460 1461 1463 1464 1465 1467 1468 1470 1471 1472 1473 1474 1475 1476 1477 1477 1478 1478 1479 1480 1480 1481 1482 1483 1484 1485 1486 1487 1488 1489 1490 1490 1491 1491 1492 1492 1493 1493 1493 1494 1495 1496 1497 1497 1498 1498 1499 1500 1500 1501 1502 1503 1503 1503 1504 1504
1445 1446 1447 1447 1448 1449 1450 1451 1452 1454 1455 1457 1458 1459 1460 1461 1463 1464 1466 1467 1469 1470 1472 1473 1473 1474 1475 1476 1476 1477 1478 1478 1479 1479 1480 1481 1482 1482 1483 1484 1485 1487 1488 1488 1489 1489 1490 1490 1491 1491 1492 1492 1493 1494 1494 1495 1496 1497 1497 1498 1498 1499 1500 1500 1501 1502 1502 1503 1503
1443 1444 1445 1446 1447 1448 1449 1450 1451 1453 1454 1455 1457 1458 1459 1460 1462 1463 1465 1466 1468 1469 1471 1472 1473 1474 1474 1475 1475 1476 1477 1477 1478 1478 1479 1479 1480 1481 1482 1483 1484 1485 1486 1487 1488 1488 1488 1489 1489 1490 1490 1491 1492 1493 1493 1494 1495 1496 1496 1497 1497 1498 1498 1499 1499 1500 1501 1501 1502
1443 1443 1444 1445 1446 1447 1448 1449 1450 1452 1453 1454 1456 1457 1458 1459 1461 1462 1464 1465 1467 1468 1470 1471 1472 1473 1473 1474 1475 1475 1476 1476 1477 1477 1478 1478 1479 1480 1481 1482 1483 1484 1485 1485 1486 1487 1487 1488 1488 1489 1489 1490 1491 1492 1493 1493 1494 1494 1495 1496 1496 1497 1498 1498 1498 1499 1499 1500 1501
1441 1442 1443 1444 1445 1446 1447 1448 1449 1451 1452 1453 1454 1456 1457 1458 1459 1461 1462 1464 1465 1467 1469 1470 1471 1472 1473 1473 1474 1474 1475 1475 1476 1476 1477 1478 1478 1479 1480 1481 1482 1483 1483 1484 1485 1485 1486 1487 1487 1488 1488 1489 1490 1491 1491 1492 1493 1493 1494 1495 1495 1496 1497 1497 1498 1498 1498 1499 1499
1440 1441 1442 1443 1444 1445 1446 1447 1448 1450 1451 1452 1453 1454 1455 1457 1458 1459 1461 1463 1464 1466 1468 1469 1470 1471 1472 1472 1473 1473 1474 1474 1475 1475 1476 1477 1477 1478 1479 1480 1481 1482 1483 1483 1484 1484 1485 1486 1486 1487 1488 1488 1489 1489 1490 1491 1492 1492 1493 1493 1494 1495 1496 1496 1497 1497 1497 1498 1498
1439 1440 1441 1442 1443 1444 1445 1446 1447 1448 1450 1451 1452 1453 1454 1456 1457 1458 1460 1462 1463 1465 1467 1468 1469 1470 1471 1471 1472 1473 1473 1473 1474 1474 1475 1476 1476 1477 1478 1479 1480 1481 1482 1482 1483 1483 1484 1485 1485 1486 1487 1487 1488 1488 1489 1490 1491 1491 1492 1492 1493 1493 1494 1495 1496 1496 1496 1497 1498
1438 1439 1440 1441 1442 1443 1444 1445 1446 1447 1448 1449 1451 1452 1453 1455 1456 1458 1459 1460 1462 1464 1466 1468 1469 1469 1470 1471 1471 1472 1472 1473 1473 1474 1474 1475 1476 1476 1477 1478 1479 1480 1481 1481 1482 1483 1483 1484 1484 1485 1486 1487 1487 1488 1488 1489 1489 1490 1490 1491 1492 1493 1493 1494 1495 1495 1496 1496 1497
1436 1438 1438 1440 1441 1442 1443 1444 1445 1446 1447 1448 1450 1451 1453 1453 1455 1456 1458 1459 1461 1463 1465 1467 1468 1468 1469 1469 1470 1471 1471 1472 1472 1473 1473 1474 1475 1475 1476 1477 1478 1479 1480 1480 1481 1482 1482 1483 1484 1484 1485 1486 1486 1487 1488 1488 1488 1489 1489 1490 1491 1492 1492 1493 1494 1495 1495 1495 1496
1435 1436 1437 1438 1439 1440 1442 1443 1444 1445 1446 1448 1449 1450 1451 1453 1454 1455 1457 1458 1460 1463 1464 1466 1467 1468 1468 1468 1469 1469 1470 1471 1471 1472 1473 1473 1474 1475 1475 1476 1477 1478 1478 1479 1480 1481 1481 1482 1483 1484 1484 1485 1486 1486 1487 1488 1488 1488 1489 1490 1490 1491 1492 1492 1493 1494 1494 1495 1495
1433 1435 1436 1437 1438 1439 1440 1442 1443 1444 1445 1447 1448 1449 1450 1451 1453 1454 1456 1457 1459 1462 1463 1465 1466 1466 1467 1467 1468 1468 1469 1470 1470 1471 1472 1472 1473 1474 1475 1475 1476 1477 1478 1478 1479 1480 1481 1481 1482 1483 1483 1484 1485 1486 1486 1487 1488 1488 1489 1489 1490 1491 1491 1492 1493 1493 1493 1494 1495
1433 1434 1435 1436 1437 1438 1439 1440 1442 1443 1444 1445 1447 1448 1449 1450 1451 1453 1454 1456 1458 1460 1462 1463 1464 1465 1466 1466 1467 1467 1468 1468 1469 1470 1471 1471 1472 1473 1474 1475 1475 1476 1477 1478 1478 1479 1480 1480 1481 1482 1483 1483 1484 1485 1486 1487 1487 1488 1488 1489 1490 1490 1491 1491 1492 1493 1493 1493 1494
1431 1433 1433 1435 1436 1437 1438 1439 1440 1442 1443 1444 1445 1447 1448 1449 1450 1452 1453 1455 1457 1459 1461 1462 1463 1464 1464 1465 1466 1466 1467 1468 1468 1469 1470 1470 1471 1472 1473 1474 1474 1475 1476 1477 1478 1478 1479 1480 1480 1481 1482 1483 1483 1484 1485 1486 1487 1487 1488 1488 1489 1490 1490 1491 1491 1492 1493 1493 1493
1430 1431 1432 1433 1434 1435 1436 1438 1439 1440 1441 1443 1444 1445 1447 1448 1449 1450 1452 1454 1456 1458 1460 1461 1462 1462 1463 1464 1464 1465 1466 1467 1467 1468 1469 1470 1470 1471 1472 1473 1473 1474 1475 1476 1477 1478 1478 1479 1480 1481 1482 1482 1483 1484 1484 1485 1486 1486 1487 1488 1488 1489 1489 1490 1491 1491 1492 1492 1493
1428 1430 1431 1432 1433 1434 1435 1436 1438 1439 1440 1441 1443 1444 1445 1447 1448 1449 1450 1452 1454 1456 1458 1459 1460 1461 1462 1462 1463 1464 1464 1465 1466 1467 1468 1468 1469 1470 1471 1472 1473 1473 1474 1475 1476 1477 1477 1478 1479 1480 1481 1482 1482 1483 1484 1484 1485 1486 1486 1487 1487 1488 1488 1489 1490 1490 1491 1491 1492
1427 1428 1429 1430 1431 1432 1433 1435 1436 1438 1438 1440 1441 1442 1444 1445 1446 1447 1449 1451 1453 1455 1457 1458 1459 1459 1460 1461 1462 1463 1463 1464 1465 1466 1467 1468 1468 1469 1470 1471 1472 1472 1473 1474 1475 1475 1476 1477 1478 1479 1480 1481 1482 1483 1483 1483 1484 1485 1486 1486 1487 1487 1488 1488 1489 1490 1490 1491 1491
1425 1427 1428 1429 1430 1431 1432 1433 1435 1436 1437 1438 1439 1441 1442 1443 1444 1446 1447 1449 1451 1453 1455 1457 1457 1458 1459 1460 1460 1461 1462 1463 1464 1465 1466 1467 1468 1468 1469 1470 1470 1471 1472 1473 1473 1474 1475 1476 1477 1478 1479 1480 1481 1482 1482 1483 1483 1484 1485 1485 1486 1486 1487 1488 1488 1489 1490 1490 1491
1424 1425 1426 1427 1428 1429 1430 1432 1433 1435 1436 1437 1438 1439 1440 1442 1443 1444 1446 1448 1450 1452 1454 1455 1456 1457 1458 1458 1459 1460 1461 1462 1463 1464 1465 1466 1467 1468 1468 1469 1469 1470 1471 1472 1473 1473 1474 1475 1476 1477 1478 1479 1480 1481 1482 1482 1483 1483 1484 1485 1485 1486 1486 1487 1488 1488 1489 1490 1490
1422 1423 1424 1425 1427 1428 1429 1431 1432 1433 1435 1436 1437 1438 1439 1440 1441 1442 1444 1447 1449 1451 1453 1454 1455 1456 1457 1458 1458 1459 1460 1461 1462 1463 1464 1465 1466 1467 1467 1467 1468 1469 1470 1471 1472 1473 1473 1474 1475 1476 1477 1478 1479 1480 1481 1482 1482 1483 1483 1484 1485 1485 1486 1487 1487 1488 1488 1489 1489
1421 1422 1423 1424 1425 1427 1428 1429 1431 1433 1434 1435 1436 1437 1437 1438 1439 1441 1443 1446 1448 1450 1451 1452 1453 1455 1456 1457 1458 1458 1459 1460 1461 1462 1463 1464 1465 1465 1465 1466 1467 1468 1469 1470 1471 1472 1473 1473 1474 1475 1476 1478 1478 1479 1480 1481 1481 1482 1483 1483 1484 1485 1486 1486 1487 1487 1488 1488 1489
1419 1420 1422 1423 1424 1425 1427 1428 1430 1432 1433 1434 1435 1435 1436 1437 1438 1440 1442 1445 1447 1448 1450 1451 1452 1453 1455 1456 1457 1458 1458 1459 1460 1461 1462 1463 1463 1463 1464 1465 1466 1467 1468 1469 1470 1471 1472 1473 1473 1475 1476 1477 1478 1478 1479 1480 1481 1481 1482 1483 1483 1484 1485 1486 1486 1487 1487 1488 1488
1418 1419 1421 1422 1423 1424 1426 1428 1429 1431 1432 1433 1434 1434 1434 1435 1437 1439 1442 1444 1446 1447 1448 1450 1451 1453 1454 1455 1456 1457 1458 1458 1459 1460 1460 1461 1462 1463 1463 1465 1466 1467 1468 1468 1469 1470 1471 1472 1473 1474 1475 1476 1477 1478 1478 1479 1480 1481 1481 1482 1483 1484 1484 1485 1486 1486 1487 1487 1488
1417 1418 1420 1421 1422 1423 1425 1427 1428 1430 1431 1432 1432 1432 1433 1434 1436 1438 1440 1443 1444 1446 1447 1449 1450 1452 1453 1454 1455 1456 1456 1457 1458 1458 1459 1460 1461 1462 1463 1464 1465 1466 1467 1468 1468 1469 1470 1471 1473 1473 1475 1476 1476 1477 1478 1478 1479 1480 1481 1482 1483 1483 1484 1484 1485 1486 1486 1487 1488
1415 1417 1419 1420 1421 1423 1424 1425 1427 1428 1429 1430 1431 1431 1432 1433 1435 1437 1439 1441 1443 1444 1446 1448 1449 1451 1452 1453 1453 1454 1455 1456 1456 1457 1458 1458 1460 1461 1462 1463 1464 1465 1466 1467 1468 1469 1470 1471 1472 1473 1474 1475 1476 1476 1477 1478 1479 1480 1481 1481 1482 1483 1483 1484 1484 1485 1486 1487 1487
1415 1416 1418 1419 1420 1422 1423 1424 1425 1426 1428 1428 1429 1430 1431 1432 1434 1436 1438 1440 1442 1443 1445 1447 1448 1449 1450 1451 1452 1453 1454 1454 1455 1456 1457 1458 1459 1460 1462 1463 1464 1465 1466 1467 1468 1469 1470 1471 1472 1473 1473 1474 1475 1476 1477 1478 1478 1479 1480 1480 1481 1482 1483 1483 1484 1485 1485 1486 1487
1413 1415 1417 1418 1420 1421 1422 1423 1424 1425 1426 1427 1428 1428 1430 1431 1433 1435 1437 1439 1441 1442 1444 1445 1447 1448 1448 1449 1450 1452 1452 1453 1454 1455 1456 1458 1459 1460 1461 1462 1463 1464 1465 1466 1467 1468 1470 1471 1472 1473 1473 1474 1475 1475 1476 1477 1478 1478 1479 1480 1481 1482 1482 1483 1483 1484 1485 1485 1486
1412 1414 1416 1417 1418 1420 1421 1422 1423 1423 1424 1425 1426 1427 1429 1430 1432 1434 1436 1438 1439 1441 1443 1444 1445 1446 1447 1448 1449 1450 1451 1452 1453 1454 1456 1457 1458 1459 1460 1461 1462 1463 1465 1466 1467 1468 1469 1470 1471 1472 1473 1473 1474 1475 1476 1476 1477 1478 1478 1479 1480 1481 1482 1483 1483 1484 1484 1485 1485
1411 1413 1414 1416 1417 1418 1419 1420 1421 1422 1423 1424 1425 1426 1428 1429 1431 1433 1435 1437 1438 1439 1441 1442 1443 1444 1446 1447 1448 1449 1450 1451 1452 1453 1455 1456 1457 1458 1459 1460 1462 1463 1464 1465 1467 1468 1469 1470 1471 1472 1472 1473 1474 1475 1475 1476 1477 1477 1478 1479 1480 1481 1481 1482 1483 1483 1484 1484 1484
1410 1411 1413 1414 1416 1417 1418 1419 1420 1421 1421 1423 1424 1425 1427 1428 1430 1432 1434 1435 1437 1438 1439 1440 1442 1443 1444 1446 1447 1448 1449 1450 1452 1453 1454 1455 1456 1458 1458 1460 1461 1462 1464 1465 1466 1467 1468 1469 1470 1471 1472 1473 1473 1474 1475 1475 1476 1477 1478 1478 1479 1480 1481 1481 1482 1483 1483 1483 1484
1409 1410 1412 1413 1415 1416 1417 1418 1419 1419 1420 1421 1423 1424 1426 1427 1429 1431 1432 1434 1435 1437 1438 1440 1441 1442 1443 1444 1446 1447 1448 1449 1451 1452 1453 1454 1455 1457 1458 1459 1460 1462 1463 1464 1465 1467 1468 1469 1470 1471 1471 1472 1473 1474 1474 1475 1476 1477 1478 1478 1479 1480 1480 1481 1482 1482 1483 1483 1483
1408 1409 1411 1412 1413 1414 1416 1417 1418 1418 1419 1420 1422 1423 1425 1426 1428 1429 1431 1433 1434 1436 1437 1439 1440 1441 1442 1443 1445 1446 1447 1448 1450 1451 1452 1453 1454 1456 1457 1458 1459 1461 1463 1464 1465 1466 1467 1468 1469 1470 1471 1472 1473 1473 1474 1475 1476 1477 1478 1478 1479 1479 1480 1481 1481 1482 1482 1483 1483
1407 1408 1409 1411 1412 1413 1415 1416 1416 1417 1418 1419 1421 1422 1423 1425 1427 1428 1430 1432 1433 1434 1436 1438 1439 1440 1441 1442 1444 1445 1446 1448 1449 1450 1451 1453 1453 1455 1456 1457 1459 1460 1462 1463 1464 1465 1466 1467 1468 1469 1470 1472 1473 1473 1474 1475 1476 1476 1477 1478 1478 1479 1480 1480 1481 1481 1482 1483 1483
1405 1407 1408 1410 1411 1413 1413 1414 1415 1416 1417 1418 1420 1421 1423 1424 1425 1427 1428 1430 1432 1433 1435 1437 1438 1439 1440 1441 1443 1444 1445 1447 1448 1449 1450 1451 1453 1454 1455 1456 1458 1460 1461 1463 1463 1464 1465 1467 1468 1469 1470 1471 1472 1473 1474 1474 1475 1476 1477 1478 1478 1479 1479 1480 1481 1481 1482 1482 1483
1403 1405 1407 1408 1410 1411 1412 1413 1413 1414 1416 1417 1418 1420 1421 1423 1424 1426 1427 1429 1431 1433 1434 1436 1437 1438 1439 1441 1442 1443 1444 1445 1447 1448 1449 1450 1452 1453 1454 1456 1458 1459 1461 1462 1463 1464 1465 1466 1467 1468 1469 1471 1472 1473 1473 1474 1475 1476 1477 1477 1478 1478 1479 1480 1480 1481 1482 1482 1483
1402 1403 1405 1407 1408 1409 1410 1411 1412 1413 1414 1416 1417 1418 1420 1422 1423 1425 1426 1428 1430 1431 1433 1434 1436 1437 1438 1440 1441 1442 1443 1444 1446 1447 1448 1449 1451 1452 1454 1455 1457 1459 1460 1461 1463 1463 1465 1466 1467 1468 1469 1470 1471 1472 1473 1474 1475 1476 1476 1477 1478 1478 1479 1479 1480 1481 1481 1482 1483
1399 1402 1403 1405 1407 1408 1408 1409 1411 1412 1413 1415 1416 1417 1419 1420 1422 1424 1425 1427 1428 1430 1432 1433 1434 1436 1437 1438 1440 1441 1442 1443 1445 1446 1447 1449 1450 1452 1453 1455 1457 1458 1460 1461 1462 1463 1464 1465 1466 1468 1469 1470 1471 1472 1473 1474 1474 1475 1476 1477 1477 1478 1478 1479 1480 1481 1481 1482 1483
1398 1399 1402 1404 1405 1406 1408 1408 1410 1411 1412 1413 1415 1416 1418 1419 1421 1423 1424 1426 1427 1429 1430 1432 1433 1435 1436 1438 1439 1440 1442 1443 1444 1445 1446 1448 1449 1451 1453 1454 1456 1458 1459 1461 1462 1463 1464 1465 1466 1468 1469 1470 1471 1472 1473 1473 1474 1475 1475 1476 1477 1478 1478 1479 1480 1480 1481 1482 1483
1395 1397 1399 1402 1404 1405 1407 1408 1409 1410 1411 1412 1414 1415 1417 1418 1420 1421 1423 1425 1426 1428 1429 1431 1432 1434 1435 1437 1438 1440 1441 1443 1443 1444 1446 1447 1449 1450 1452 1454 1455 1457 1459 1460 1462 1463 1464 1465 1466 1468 1469 1470 1471 1472 1472 1473 1473 1474 1475 1476 1476 1477 1478 1479 1480 1480 1481 1482 1483
1393 1395 1398 1400 1403 1404 1406 1407 1408 1409 1410 1412 1413 1414 1416 1417 1419 1421 1422 1424 1426 1427 1428 1430 1431 1433 1434 1436 1437 1438 1440 1441 1443 1444 1445 1447 1448 1450 1452 1453 1455 1457 1458 1460 1461 1463 1463 1465 1466 1468 1469 1470 1471 1471 1472 1472 1473 1473 1474 1475 1476 1477 1478 1478 1479 1480 1481 1482 1482
1392 1393 1395 1398 1401 1403 1405 1406 1407 1408 1409 1411 1412 1413 1414 1416 1418 1420 1421 1423 1425 1426 1428 1429 1431 1432 1433 1435 1436 1438 1439 1440 1442 1443 1445 1447 1448 1450 1452 1453 1455 1457 1458 1460 1461 1462 1463 1465 1466 1468 1468 1469 1470 1471 1471 1472 1473 1473 1474 1475 1476 1476 1477 1478 1479 1480 1481 1481 1482